User: anonymous   Login
Location: Observatory
(49.4490°N, 2.6360°W)
Time: 01:00:58
(UTC+01:00)
Language:

CAS-4B - Orbit

View from above orbital plane
View from above orbital plane
View from above satellite
View from above satellite

Ground track
Ground track

The orbit data is extracted from the following two-line orbital elements,

1 42759U 17034B   24144.85774961  .00020379  00000-0  75000-3 0  9990
2 42759  43.0203   3.9823 0012538 195.1821 164.8656 15.27428300383688
Epoch (UTC): 23 May 2024 20:35:09
Eccentricity: 0.0012538
inclination: 43.0203°
perigee height: 475 km
apogee height: 492 km
right ascension of ascending node: 3.9823°
argument of perigee: 195.1821°
revolutions per day: 15.27428300
mean anomaly at epoch: 164.8656°
orbit number at epoch: 38368

The dashed part of the orbit path shows where the satellite is in the earth's shadow,  

DLR